ProjectID,Date,Electric Generation,Electric Utility Import,Facility Electric Load
,YYYY-MM-DD,kW,kW,kW
211,2014-11-01,0.0,,0.0
211,2014-11-02,0.0,,0.0
211,2014-11-03,0.0,,0.0
211,2014-11-04,0.0,,0.0
211,2014-11-05,0.0,,0.0
211,2014-11-06,0.0,,0.0
211,2014-11-07,0.0,,0.0
211,2014-11-08,0.0,,0.0
211,2014-11-09,0.0,,0.0
211,2014-11-10,0.0,,0.0
211,2014-11-11,0.0,,0.0
211,2014-11-12,0.0,,0.0
211,2014-11-13,0.0,,0.0
211,2014-11-14,0.0,,0.0
211,2014-11-15,0.0,,0.0
211,2014-11-16,0.0,,0.0
211,2014-11-17,0.0,,0.0
211,2014-11-18,0.0,,0.0
211,2014-11-19,0.16666666666666666,,0.16666666666666666
211,2014-11-20,0.125,,0.125
211,2014-11-21,0.5833333333333334,,0.5833333333333334
211,2014-11-22,0.4166666666666667,,0.4166666666666667
211,2014-11-23,13.166666666666666,,13.166666666666666
211,2014-11-24,17.375,,17.375
211,2014-11-25,3.1666666666666665,,3.1666666666666665
211,2014-11-26,5.125,,5.125
211,2014-11-27,18.541666666666668,,18.541666666666668
211,2014-11-28,0.9583333333333334,,0.9583333333333334
211,2014-11-29,2.7083333333333335,,2.7083333333333335
211,2014-11-30,8.75,,8.75
211,2014-12-01,17.916666666666668,,17.916666666666668
211,2014-12-02,25.5,,25.5
211,2014-12-03,3.6666666666666665,,3.6666666666666665
211,2014-12-04,32.833333333333336,,32.833333333333336
211,2014-12-05,13.5,,13.5
211,2014-12-06,14.291666666666666,,14.291666666666666
211,2014-12-07,39.916666666666664,,39.916666666666664
211,2014-12-08,19.25,,19.25
211,2014-12-09,32.75,,32.75
211,2014-12-10,3.5416666666666665,,3.5416666666666665
211,2014-12-11,0.041666666666666664,,0.041666666666666664
211,2014-12-12,0.125,,0.125
211,2014-12-13,0.0,,0.0
211,2014-12-14,6.333333333333333,,6.333333333333333
211,2014-12-15,9.625,,9.625
211,2014-12-16,5.833333333333333,,5.833333333333333
211,2014-12-17,5.833333333333333,,5.833333333333333
211,2014-12-18,3.8333333333333335,,3.8333333333333335
211,2014-12-19,12.25,,12.25
211,2014-12-20,26.958333333333332,,26.958333333333332
211,2014-12-21,18.75,,18.75
211,2014-12-22,28.791666666666668,,28.791666666666668
211,2014-12-23,10.625,,10.625
211,2014-12-24,3.9583333333333335,,3.9583333333333335
211,2014-12-25,15.0,,15.0
211,2014-12-26,32.083333333333336,,32.083333333333336
211,2014-12-27,22.208333333333332,,22.208333333333332
211,2014-12-28,13.583333333333334,,13.583333333333334
211,2014-12-29,15.791666666666666,,15.791666666666666
211,2014-12-30,27.083333333333332,,27.083333333333332
211,2014-12-31,17.5,,17.5
211,2015-01-01,9.75,,9.75
211,2015-01-02,26.791666666666668,,26.791666666666668
211,2015-01-03,4.375,,4.375
211,2015-01-04,4.25,,4.25
211,2015-01-05,38.666666666666664,,38.666666666666664
211,2015-01-06,7.666666666666667,,7.666666666666667
211,2015-01-07,11.291666666666666,,11.291666666666666
211,2015-01-08,13.666666666666666,,13.666666666666666
211,2015-01-09,8.541666666666666,,8.541666666666666
211,2015-01-10,5.75,,5.75
211,2015-01-11,22.375,,22.375
211,2015-01-12,0.041666666666666664,,0.041666666666666664
211,2015-01-13,0.4583333333333333,,0.4583333333333333
211,2015-01-14,0.4583333333333333,,0.4583333333333333
211,2015-01-15,2.5833333333333335,,2.5833333333333335
211,2015-01-16,21.708333333333332,,21.708333333333332
211,2015-01-17,19.333333333333332,,19.333333333333332
211,2015-01-18,12.541666666666666,,12.541666666666666
211,2015-01-19,11.5,,11.5
211,2015-01-20,24.916666666666668,,24.916666666666668
211,2015-01-21,29.0,,29.0
211,2015-01-22,28.333333333333332,,28.333333333333332
211,2015-01-23,19.791666666666668,,19.791666666666668
211,2015-01-24,6.916666666666667,,6.916666666666667
211,2015-01-25,21.208333333333332,,21.208333333333332
211,2015-01-26,16.666666666666668,,16.666666666666668
211,2015-01-27,5.875,,5.875
211,2015-01-28,14.458333333333334,,14.458333333333334
211,2015-01-29,3.625,,3.625
211,2015-01-30,1.25,,1.25
211,2015-01-31,2.0833333333333335,,2.0833333333333335
211,2015-02-01,1.0833333333333333,,1.0833333333333333
211,2015-02-02,0.9583333333333334,,0.9583333333333334
211,2015-02-03,2.3333333333333335,,2.3333333333333335
211,2015-02-04,0.041666666666666664,,0.041666666666666664
211,2015-02-05,0.20833333333333334,,0.20833333333333334
211,2015-02-06,0.875,,0.875
211,2015-02-07,0.125,,0.125
211,2015-02-08,0.125,,0.125
211,2015-02-09,0.041666666666666664,,0.041666666666666664
211,2015-02-10,0.041666666666666664,,0.041666666666666664
211,2015-02-11,0.125,,0.125
211,2015-02-12,0.08333333333333333,,0.08333333333333333
211,2015-02-13,0.041666666666666664,,0.041666666666666664
211,2015-02-14,0.041666666666666664,,0.041666666666666664
211,2015-02-15,0.0,,0.0
211,2015-02-16,0.08333333333333333,,0.08333333333333333
211,2015-02-17,0.125,,0.125
211,2015-02-18,0.08333333333333333,,0.08333333333333333
211,2015-02-19,0.08333333333333333,,0.08333333333333333
211,2015-02-20,0.2916666666666667,,0.2916666666666667
211,2015-02-21,0.041666666666666664,,0.041666666666666664
211,2015-02-22,0.041666666666666664,,0.041666666666666664
211,2015-02-23,0.25,,0.25
211,2015-02-24,0.20833333333333334,,0.20833333333333334
211,2015-02-25,0.75,,0.75
211,2015-02-26,0.4583333333333333,,0.4583333333333333
211,2015-02-27,0.5833333333333334,,0.5833333333333334
211,2015-02-28,0.875,,0.875
211,2015-03-01,0.08333333333333333,,0.08333333333333333
211,2015-03-02,0.625,,0.625
211,2015-03-03,0.041666666666666664,,0.041666666666666664
211,2015-03-04,1.9166666666666667,,1.9166666666666667
211,2015-03-05,2.125,,2.125
211,2015-03-06,3.875,,3.875
211,2015-03-07,1.7916666666666667,,1.7916666666666667
211,2015-03-08,6.375,,6.375
211,2015-03-09,24.875,,24.875
211,2015-03-10,16.625,,16.625
211,2015-03-11,28.958333333333332,,28.958333333333332
211,2015-03-12,77.5,,77.5
211,2015-03-13,65.625,,65.625
211,2015-03-14,13.291666666666666,,13.291666666666666
211,2015-03-15,23.375,,23.375
211,2015-03-16,49.958333333333336,,49.958333333333336
211,2015-03-17,58.916666666666664,,58.916666666666664
211,2015-03-18,54.875,,54.875
211,2015-03-19,86.45833333333333,,86.45833333333333
211,2015-03-20,44.833333333333336,,44.833333333333336
211,2015-03-21,14.083333333333334,,14.083333333333334
211,2015-03-22,73.79166666666667,,73.79166666666667
211,2015-03-23,91.25,,91.25
211,2015-03-24,87.375,,87.375
211,2015-03-25,22.625,,22.625
211,2015-03-26,5.416666666666667,,5.416666666666667
211,2015-03-27,7.208333333333333,,7.208333333333333
211,2015-03-28,47.291666666666664,,47.291666666666664
211,2015-03-29,96.41666666666667,,96.41666666666667
211,2015-03-30,27.625,,27.625
211,2015-03-31,39.375,,39.375
211,2015-04-01,96.125,,96.125
211,2015-04-02,59.416666666666664,,59.416666666666664
211,2015-04-03,41.291666666666664,,41.291666666666664
211,2015-04-04,76.04166666666667,,76.04166666666667
211,2015-04-05,2.2083333333333335,,2.2083333333333335
211,2015-04-06,58.666666666666664,,58.666666666666664
211,2015-04-07,52.666666666666664,,52.666666666666664
211,2015-04-08,10.083333333333334,,10.083333333333334
211,2015-04-09,37.875,,37.875
211,2015-04-10,47.5,,47.5
211,2015-04-11,58.5,,58.5
211,2015-04-12,99.95833333333333,,99.95833333333333
211,2015-04-13,80.33333333333333,,80.33333333333333
211,2015-04-14,78.33333333333333,,78.33333333333333
211,2015-04-15,98.0,,98.0
211,2015-04-16,75.95833333333333,,75.95833333333333
211,2015-04-17,69.29166666666667,,69.29166666666667
211,2015-04-18,102.91666666666667,,102.91666666666667
211,2015-04-19,93.70833333333333,,93.70833333333333
211,2015-04-20,30.375,,30.375
211,2015-04-21,98.41666666666667,,98.41666666666667
211,2015-04-22,74.04166666666667,,74.04166666666667
211,2015-04-23,37.875,,37.875
211,2015-04-24,73.875,,73.875
211,2015-04-25,108.54166666666667,,108.54166666666667
211,2015-04-26,74.41666666666667,,74.41666666666667
211,2015-04-27,35.75,,35.75
211,2015-04-28,103.25,,103.25
211,2015-04-29,101.33333333333333,,101.33333333333333
211,2015-04-30,88.29166666666667,,88.29166666666667
211,2015-05-01,82.0,,82.0
211,2015-05-02,104.79166666666667,,104.79166666666667
211,2015-05-03,102.83333333333333,,102.83333333333333
211,2015-05-04,73.58333333333333,,73.58333333333333
211,2015-05-05,48.166666666666664,,48.166666666666664
211,2015-05-06,85.58333333333333,,85.58333333333333
211,2015-05-07,83.04166666666667,,83.04166666666667
211,2015-05-08,79.25,,79.25
211,2015-05-09,75.5,,75.5
211,2015-05-10,71.58333333333333,,71.58333333333333
211,2015-05-11,82.70833333333333,,82.70833333333333
211,2015-05-12,50.166666666666664,,50.166666666666664
211,2015-05-13,34.25,,34.25
211,2015-05-14,105.5,,105.5
211,2015-05-15,47.0,,47.0
211,2015-05-16,55.625,,55.625
211,2015-05-17,77.375,,77.375
211,2015-05-18,64.16666666666667,,64.16666666666667
211,2015-05-19,75.66666666666667,,75.66666666666667
211,2015-05-20,99.08333333333333,,99.08333333333333
211,2015-05-21,103.83333333333333,,103.83333333333333
211,2015-05-22,96.75,,96.75
211,2015-05-23,117.70833333333333,,117.70833333333333
211,2015-05-24,99.25,,99.25
211,2015-05-25,64.20833333333333,,64.20833333333333
211,2015-05-26,81.58333333333333,,81.58333333333333
211,2015-05-27,87.16666666666667,,87.16666666666667
211,2015-05-28,104.04166666666667,,104.04166666666667
211,2015-05-29,87.79166666666667,,87.79166666666667
211,2015-05-30,93.875,,93.875
211,2015-05-31,15.75,,15.75
211,2015-06-01,31.375,,31.375
211,2015-06-02,102.875,,102.875
211,2015-06-03,111.0,,111.0
211,2015-06-04,71.54166666666667,,71.54166666666667
211,2015-06-05,85.75,,85.75
211,2015-06-06,105.375,,105.375
211,2015-06-07,92.45833333333333,,92.45833333333333
211,2015-06-08,32.791666666666664,,32.791666666666664
211,2015-06-09,26.5,,26.5
211,2015-06-10,86.54166666666667,,86.54166666666667
211,2015-06-11,82.0,,82.0
211,2015-06-12,64.54166666666667,,64.54166666666667
211,2015-06-13,81.45833333333333,,81.45833333333333
211,2015-06-14,38.708333333333336,,38.708333333333336
211,2015-06-15,42.625,,42.625
211,2015-06-16,68.75,,68.75
211,2015-06-17,86.66666666666667,,86.66666666666667
211,2015-06-18,74.375,,74.375
211,2015-06-19,66.95833333333333,,66.95833333333333
211,2015-06-20,71.33333333333333,,71.33333333333333
211,2015-06-21,79.58333333333333,,79.58333333333333
211,2015-06-22,105.91666666666667,,105.91666666666667
211,2015-06-23,90.54166666666667,,90.54166666666667
211,2015-06-24,114.58333333333333,,114.58333333333333
211,2015-06-25,88.79166666666667,,88.79166666666667
211,2015-06-26,98.16666666666667,,98.16666666666667
211,2015-06-27,12.75,,12.75
211,2015-06-28,29.958333333333332,,29.958333333333332
211,2015-06-29,98.04166666666667,,98.04166666666667
211,2015-06-30,56.583333333333336,,56.583333333333336
211,2015-07-01,48.041666666666664,,48.041666666666664
211,2015-07-02,90.5,,90.5
211,2015-07-03,104.54166666666667,,104.54166666666667
211,2015-07-04,103.33333333333333,,103.33333333333333
211,2015-07-05,97.95833333333333,,97.95833333333333
211,2015-07-06,89.125,,89.125
211,2015-07-07,79.625,,79.625
211,2015-07-08,81.41666666666667,,81.41666666666667
211,2015-07-09,25.0,,25.0
211,2015-07-10,88.29166666666667,,88.29166666666667
211,2015-07-11,103.91666666666667,,103.91666666666667
211,2015-07-12,89.0,,89.0
211,2015-07-13,92.66666666666667,,92.66666666666667
211,2015-07-14,21.333333333333332,,21.333333333333332
211,2015-07-15,93.95833333333333,,93.95833333333333
211,2015-07-16,108.29166666666667,,108.29166666666667
211,2015-07-17,40.333333333333336,,40.333333333333336
211,2015-07-18,75.83333333333333,,75.83333333333333
211,2015-07-19,89.83333333333333,,89.83333333333333
211,2015-07-20,99.29166666666667,,99.29166666666667
211,2015-07-21,86.79166666666667,,86.79166666666667
211,2015-07-22,91.5,,91.5
211,2015-07-23,76.33333333333333,,76.33333333333333
211,2015-07-24,104.70833333333333,,104.70833333333333
211,2015-07-25,90.83333333333333,,90.83333333333333
211,2015-07-26,94.08333333333333,,94.08333333333333
211,2015-07-27,85.29166666666667,,85.29166666666667
211,2015-07-28,98.58333333333333,,98.58333333333333
211,2015-07-29,89.54166666666667,,89.54166666666667
211,2015-07-30,104.20833333333333,,104.20833333333333
211,2015-07-31,96.91666666666667,,96.91666666666667
211,2015-08-01,83.20833333333333,,83.20833333333333
211,2015-08-02,98.375,,98.375
211,2015-08-03,76.45833333333333,,76.45833333333333
211,2015-08-04,78.83333333333333,,78.83333333333333
211,2015-08-05,62.666666666666664,,62.666666666666664
211,2015-08-06,75.54166666666667,,75.54166666666667
211,2015-08-07,87.91666666666667,,87.91666666666667
211,2015-08-08,57.208333333333336,,57.208333333333336
211,2015-08-09,93.16666666666667,,93.16666666666667
211,2015-08-10,48.083333333333336,,48.083333333333336
211,2015-08-11,60.083333333333336,,60.083333333333336
211,2015-08-12,63.875,,63.875
211,2015-08-13,89.25,,89.25
211,2015-08-14,49.0,,49.0
211,2015-08-15,85.41666666666667,,85.41666666666667
211,2015-08-16,93.95833333333333,,93.95833333333333
211,2015-08-17,90.875,,90.875
211,2015-08-18,41.083333333333336,,41.083333333333336
211,2015-08-19,75.33333333333333,,75.33333333333333
211,2015-08-20,37.166666666666664,,37.166666666666664
211,2015-08-21,83.33333333333333,,83.33333333333333
211,2015-08-22,88.04166666666667,,88.04166666666667
211,2015-08-23,83.91666666666667,,83.91666666666667
211,2015-08-24,85.83333333333333,,85.83333333333333
211,2015-08-25,45.166666666666664,,45.166666666666664
211,2015-08-26,51.416666666666664,,51.416666666666664
211,2015-08-27,40.666666666666664,,40.666666666666664
211,2015-08-28,83.58333333333333,,83.58333333333333
211,2015-08-29,64.91666666666667,,64.91666666666667
211,2015-08-30,75.41666666666667,,75.41666666666667
211,2015-08-31,66.625,,66.625
211,2015-09-01,78.75,,78.75
211,2015-09-02,73.70833333333333,,73.70833333333333
211,2015-09-03,70.20833333333333,,70.20833333333333
211,2015-09-04,83.91666666666667,,83.91666666666667
211,2015-09-05,78.54166666666667,,78.54166666666667
211,2015-09-06,81.04166666666667,,81.04166666666667
211,2015-09-07,82.5,,82.5
211,2015-09-08,74.20833333333333,,74.20833333333333
211,2015-09-09,51.75,,51.75
211,2015-09-10,60.75,,60.75
211,2015-09-11,74.91666666666667,,74.91666666666667
211,2015-09-12,8.0,,8.0
211,2015-09-13,25.75,,25.75
211,2015-09-14,87.58333333333333,,87.58333333333333
211,2015-09-15,82.375,,82.375
211,2015-09-16,79.66666666666667,,79.66666666666667
211,2015-09-17,79.625,,79.625
211,2015-09-18,68.08333333333333,,68.08333333333333
211,2015-09-19,31.125,,31.125
211,2015-09-20,79.0,,79.0
211,2015-09-21,69.08333333333333,,69.08333333333333
211,2015-09-22,76.08333333333333,,76.08333333333333
211,2015-09-23,76.45833333333333,,76.45833333333333
211,2015-09-24,69.45833333333333,,69.45833333333333
211,2015-09-25,60.0,,60.0
211,2015-09-26,60.208333333333336,,60.208333333333336
211,2015-09-27,64.0,,64.0
211,2015-09-28,18.708333333333332,,18.708333333333332
211,2015-09-29,11.208333333333334,,11.208333333333334
211,2015-09-30,20.833333333333332,,20.833333333333332
211,2015-10-01,56.541666666666664,,56.541666666666664
211,2015-10-02,45.458333333333336,,45.458333333333336
211,2015-10-03,22.541666666666668,,22.541666666666668
211,2015-10-04,48.625,,48.625
211,2015-10-05,47.666666666666664,,47.666666666666664
211,2015-10-06,21.875,,21.875
211,2015-10-07,43.375,,43.375
211,2015-10-08,56.583333333333336,,56.583333333333336
211,2015-10-09,17.375,,17.375
211,2015-10-10,67.83333333333333,,67.83333333333333
211,2015-10-11,69.5,,69.5
211,2015-10-12,66.16666666666667,,66.16666666666667
211,2015-10-13,35.666666666666664,,35.666666666666664
211,2015-10-14,32.625,,32.625
211,2015-10-15,33.416666666666664,,33.416666666666664
211,2015-10-16,35.458333333333336,,35.458333333333336
211,2015-10-17,43.416666666666664,,43.416666666666664
211,2015-10-18,40.041666666666664,,40.041666666666664
211,2015-10-19,60.0,,60.0
211,2015-10-20,27.5,,27.5
211,2015-10-21,26.791666666666668,,26.791666666666668
211,2015-10-22,29.583333333333332,,29.583333333333332
211,2015-10-23,62.5,,62.5
211,2015-10-24,7.791666666666667,,7.791666666666667
211,2015-10-25,30.166666666666668,,30.166666666666668
211,2015-10-26,58.0,,58.0
211,2015-10-27,41.625,,41.625
211,2015-10-28,5.625,,5.625
211,2015-10-29,7.666666666666667,,7.666666666666667
211,2015-10-30,43.5,,43.5
211,2015-10-31,28.458333333333332,,28.458333333333332
211,2015-11-01,40.041666666666664,,40.041666666666664
211,2015-11-02,52.166666666666664,,52.166666666666664
211,2015-11-03,51.333333333333336,,51.333333333333336
211,2015-11-04,50.375,,50.375
211,2015-11-05,29.875,,29.875
211,2015-11-06,20.25,,20.25
211,2015-11-07,26.666666666666668,,26.666666666666668
211,2015-11-08,48.958333333333336,,48.958333333333336
211,2015-11-09,50.0,,50.0
211,2015-11-10,8.5,,8.5
211,2015-11-11,11.875,,11.875
211,2015-11-12,8.291666666666666,,8.291666666666666
211,2015-11-13,17.333333333333332,,17.333333333333332
211,2015-11-14,21.541666666666668,,21.541666666666668
211,2015-11-15,41.625,,41.625
211,2015-11-16,42.75,,42.75
211,2015-11-17,35.75,,35.75
211,2015-11-18,21.208333333333332,,21.208333333333332
211,2015-11-19,27.083333333333332,,27.083333333333332
211,2015-11-20,25.041666666666668,,25.041666666666668
211,2015-11-21,16.958333333333332,,16.958333333333332
211,2015-11-22,36.208333333333336,,36.208333333333336
211,2015-11-23,39.041666666666664,,39.041666666666664
211,2015-11-24,16.583333333333332,,16.583333333333332
211,2015-11-25,40.916666666666664,,40.916666666666664
211,2015-11-26,25.125,,25.125
211,2015-11-27,7.125,,7.125
211,2015-11-28,6.416666666666667,,6.416666666666667
211,2015-11-29,26.708333333333332,,26.708333333333332
211,2015-11-30,41.166666666666664,,41.166666666666664
211,2015-12-01,5.833333333333333,,5.833333333333333
211,2015-12-02,7.916666666666667,,7.916666666666667
211,2015-12-03,14.0,,14.0
211,2015-12-04,7.0,,7.0
211,2015-12-05,18.5,,18.5
211,2015-12-06,26.083333333333332,,26.083333333333332
211,2015-12-07,13.75,,13.75
211,2015-12-08,18.291666666666668,,18.291666666666668
211,2015-12-09,32.666666666666664,,32.666666666666664
211,2015-12-10,18.083333333333332,,18.083333333333332
211,2015-12-11,35.958333333333336,,35.958333333333336
211,2015-12-12,8.208333333333334,,8.208333333333334
211,2015-12-13,8.916666666666666,,8.916666666666666
211,2015-12-14,20.5,,20.5
211,2015-12-15,6.208333333333333,,6.208333333333333
211,2015-12-16,7.75,,7.75
211,2015-12-17,4.083333333333333,,4.083333333333333
211,2015-12-18,20.958333333333332,,20.958333333333332
211,2015-12-19,13.416666666666666,,13.416666666666666
211,2015-12-20,23.958333333333332,,23.958333333333332
211,2015-12-21,5.416666666666667,,5.416666666666667
211,2015-12-22,5.75,,5.75
211,2015-12-23,11.458333333333334,,11.458333333333334
211,2015-12-24,32.708333333333336,,32.708333333333336
211,2015-12-25,7.875,,7.875
211,2015-12-26,11.166666666666666,,11.166666666666666
211,2015-12-27,3.5,,3.5
211,2015-12-28,9.041666666666666,,9.041666666666666
211,2015-12-29,6.0,,6.0
211,2015-12-30,7.041666666666667,,7.041666666666667
211,2015-12-31,3.3333333333333335,,3.3333333333333335
211,2016-01-01,2.0833333333333335,,2.0833333333333335
211,2016-01-02,0.2916666666666667,,0.2916666666666667
211,2016-01-03,7.916666666666667,,7.916666666666667
211,2016-01-04,4.333333333333333,,4.333333333333333
211,2016-01-05,15.5,,15.5
211,2016-01-06,33.166666666666664,,33.166666666666664
211,2016-01-07,34.416666666666664,,34.416666666666664
211,2016-01-08,18.333333333333332,,18.333333333333332
211,2016-01-09,9.75,,9.75
211,2016-01-10,5.083333333333333,,5.083333333333333
211,2016-01-11,39.208333333333336,,39.208333333333336
211,2016-01-12,1.25,,1.25
211,2016-01-13,10.958333333333334,,10.958333333333334
211,2016-01-14,0.08333333333333333,,0.08333333333333333
211,2016-01-15,6.083333333333333,,6.083333333333333
211,2016-01-16,10.875,,10.875
211,2016-01-17,6.791666666666667,,6.791666666666667
211,2016-01-18,5.625,,5.625
211,2016-01-19,21.041666666666668,,21.041666666666668
211,2016-01-20,19.291666666666668,,19.291666666666668
211,2016-01-21,4.083333333333333,,4.083333333333333
211,2016-01-22,3.4583333333333335,,3.4583333333333335
211,2016-01-23,3.5416666666666665,,3.5416666666666665
211,2016-01-24,2.1666666666666665,,2.1666666666666665
211,2016-01-25,22.708333333333332,,22.708333333333332
211,2016-01-26,3.5833333333333335,,3.5833333333333335
211,2016-01-27,14.416666666666666,,14.416666666666666
211,2016-01-28,19.416666666666668,,19.416666666666668
211,2016-01-29,7.875,,7.875
211,2016-01-30,37.291666666666664,,37.291666666666664
211,2016-01-31,17.208333333333332,,17.208333333333332
211,2016-02-01,39.458333333333336,,39.458333333333336
211,2016-02-02,40.541666666666664,,40.541666666666664
211,2016-02-03,24.416666666666668,,24.416666666666668
211,2016-02-04,25.416666666666668,,25.416666666666668
211,2016-02-05,2.875,,2.875
211,2016-02-06,29.083333333333332,,29.083333333333332
211,2016-02-07,47.125,,47.125
211,2016-02-08,29.125,,29.125
211,2016-02-09,15.541666666666666,,15.541666666666666
211,2016-02-10,28.291666666666668,,28.291666666666668
211,2016-02-11,52.583333333333336,,52.583333333333336
211,2016-02-12,1.625,,1.625
211,2016-02-13,5.416666666666667,,5.416666666666667
211,2016-02-14,9.333333333333334,,9.333333333333334
211,2016-02-15,3.7083333333333335,,3.7083333333333335
211,2016-02-16,0.041666666666666664,,0.041666666666666664
211,2016-02-17,0.0,,0.0
211,2016-02-18,0.16666666666666666,,0.16666666666666666
211,2016-02-19,0.08333333333333333,,0.08333333333333333
211,2016-02-20,38.625,,38.625
211,2016-02-21,20.5,,20.5
211,2016-02-22,55.041666666666664,,55.041666666666664
211,2016-02-23,41.125,,41.125
211,2016-02-24,6.541666666666667,,6.541666666666667
211,2016-02-25,9.791666666666666,,9.791666666666666
211,2016-02-26,41.166666666666664,,41.166666666666664
211,2016-02-27,49.166666666666664,,49.166666666666664
211,2016-02-28,63.5,,63.5
211,2016-02-29,18.583333333333332,,18.583333333333332
211,2016-03-01,32.416666666666664,,32.416666666666664
211,2016-03-02,50.791666666666664,,50.791666666666664
211,2016-03-03,38.958333333333336,,38.958333333333336
211,2016-03-04,50.75,,50.75
211,2016-03-05,44.0,,44.0
211,2016-03-06,72.58333333333333,,72.58333333333333
211,2016-03-07,52.208333333333336,,52.208333333333336
211,2016-03-08,56.375,,56.375
211,2016-03-09,53.791666666666664,,53.791666666666664
211,2016-03-10,9.833333333333334,,9.833333333333334
211,2016-03-11,38.125,,38.125
211,2016-03-12,67.54166666666667,,67.54166666666667
211,2016-03-13,38.208333333333336,,38.208333333333336
211,2016-03-14,21.708333333333332,,21.708333333333332
211,2016-03-15,13.916666666666666,,13.916666666666666
211,2016-03-16,27.166666666666668,,27.166666666666668
211,2016-03-17,79.41666666666667,,79.41666666666667
211,2016-03-18,23.166666666666668,,23.166666666666668
211,2016-03-19,90.875,,90.875
211,2016-03-20,75.08333333333333,,75.08333333333333
211,2016-03-21,49.083333333333336,,49.083333333333336
211,2016-03-22,41.125,,41.125
211,2016-03-23,8.083333333333334,,8.083333333333334
211,2016-03-24,36.875,,36.875
211,2016-03-25,20.333333333333332,,20.333333333333332
211,2016-03-26,90.29166666666667,,90.29166666666667
211,2016-03-27,85.16666666666667,,85.16666666666667
211,2016-03-28,11.375,,11.375
211,2016-03-29,98.04166666666667,,98.04166666666667
211,2016-03-30,79.95833333333333,,79.95833333333333
211,2016-03-31,11.625,,11.625
211,2016-04-01,46.833333333333336,,46.833333333333336
211,2016-04-02,65.91666666666667,,65.91666666666667
211,2016-04-03,31.416666666666668,,31.416666666666668
211,2016-04-04,1.8333333333333333,,1.8333333333333333
211,2016-04-05,40.125,,40.125
211,2016-04-06,27.666666666666668,,27.666666666666668
211,2016-04-07,36.5,,36.5
211,2016-04-08,43.416666666666664,,43.416666666666664
211,2016-04-09,83.29166666666667,,83.29166666666667